Location: Kershaw
(34.5481°N, 80.5823°W)
Time: 21:57:47
(UTC+00:00)

Vanguard 2 Rocket - Pass Details

Date: 01 October 2022
Orbit: 555 x 3321 km, 32.9° (Epoch: 28 November)

Event Time Altitude Azimuth Distance (km) Brightness Sun altitude
Exits shadow 10:29:46 13° 251° (WSW) 1,980 8.0 -10.6°
Maximum altitude 10:32:20 19° 213° (SSW) 1,495 7.7 -10.0°
Drops below altitude 10° 10:35:14 10° 167° (SSE) 1,854 8.7 -9.4°
Sets 10:37:50 0° 147° (SSE) 2,708 9.8 -8.9°
